| time (UTC) | temp F | wind direction | speed MPH | gust MPH | rain 1hr in | rain 24hr in | rain mn in | humidity % | barometer mb |
| 20260904190302 | 72 | 200 | 2.0 | 0.0 | 0.00 | 0.00 | 0.00 | 61 | 1016.0 |
| 20260904184802 | 72 | 220 | 3.0 | 0.0 | 0.00 | 0.00 | 0.00 | 57 | 1016.0 |
| 20260904183302 | 72 | 220 | 3.0 | 0.0 | 0.00 | 0.00 | 0.00 | 57 | 1016.0 |
| 20260904181807 | 73 | 230 | 5.0 | 0.0 | 0.00 | 0.00 | 0.00 | 50 | 1016.0 |
| 20260904180302 | 73 | 230 | 5.0 | 0.0 | 0.00 | 0.00 | 0.00 | 50 | 1016.0 |
| 20260904174802 | 75 | 220 | 5.0 | 0.0 | 0.00 | 0.00 | 0.00 | 47 | 1016.0 |
| 20260904173302 | 75 | 220 | 5.0 | 0.0 | 0.00 | 0.00 | 0.00 | 47 | 1016.0 |
| 20260904171803 | 75 | 240 | 5.0 | 0.0 | 0.00 | 0.00 | 0.00 | 50 | 1015.0 |
| 20260904170302 | 75 | 240 | 5.0 | 0.0 | 0.00 | 0.00 | 0.00 | 50 | 1015.0 |
| 20260904164802 | 77 | 250 | 6.0 | 0.0 | 0.00 | 0.00 | 0.00 | 54 | 1015.0 |
| 20260904163302 | 77 | 250 | 6.0 | 0.0 | 0.00 | 0.00 | 0.00 | 54 | 1015.0 |
| 20260904161802 | 81 | 260 | 8.0 | 0.0 | 0.00 | 0.00 | 0.00 | 39 | 1015.0 |
| 20260904160302 | 81 | 260 | 8.0 | 0.0 | 0.00 | 0.00 | 0.00 | 39 | 1015.0 |
| 20260904154802 | 84 | 270 | 8.0 | 0.0 | 0.00 | 0.00 | 0.00 | 35 | 1015.0 |
| 20260904153303 | 84 | 270 | 8.0 | 0.0 | 0.00 | 0.00 | 0.00 | 35 | 1015.0 |
| 20260904151802 | 86 | 260 | 7.0 | 0.0 | 0.00 | 0.00 | 0.00 | 31 | 1015.0 |
| 20260904150303 | 86 | 260 | 7.0 | 0.0 | 0.00 | 0.00 | 0.00 | 31 | 1015.0 |
| 20260904144802 | 86 | 270 | 9.0 | 0.0 | 0.00 | 0.00 | 0.00 | 29 | 1015.0 |
| 20260904143303 | 86 | 270 | 9.0 | 0.0 | 0.00 | 0.00 | 0.00 | 29 | 1015.0 |
| 20260904141802 | 86 | 250 | 7.0 | 0.0 | 0.00 | 0.00 | 0.00 | 29 | 1015.0 |
| 20260904140312 | 86 | 250 | 7.0 | 0.0 | 0.00 | 0.00 | 0.00 | 29 | 1015.0 |
| 20260904134802 | 86 | 240 | 10.0 | 0.0 | 0.00 | 0.00 | 0.00 | 31 | 1015.0 |
| 20260904133302 | 86 | 240 | 10.0 | 0.0 | 0.00 | 0.00 | 0.00 | 31 | 1015.0 |
| 20260904131802 | 86 | 250 | 11.0 | 0.0 | 0.00 | 0.00 | 0.00 | 31 | 1016.0 |
| 20260904130302 | 86 | 250 | 11.0 | 0.0 | 0.00 | 0.00 | 0.00 | 31 | 1016.0 |
| 20260904124802 | 86 | 280 | 9.0 | 0.0 | 0.00 | 0.00 | 0.00 | 33 | 1016.0 |
| 20260904123302 | 86 | 280 | 9.0 | 0.0 | 0.00 | 0.00 | 0.00 | 33 | 1016.0 |
| 20260904121802 | 86 | 250 | 8.0 | 0.0 | 0.00 | 0.00 | 0.00 | 35 | 1016.0 |
| 20260904120302 | 86 | 250 | 8.0 | 0.0 | 0.00 | 0.00 | 0.00 | 35 | 1016.0 |
| 20260904114802 | 86 | 260 | 10.0 | 0.0 | 0.00 | 0.00 | 0.00 | 35 | 1017.0 |
| 20260904113302 | 86 | 260 | 10.0 | 0.0 | 0.00 | 0.00 | 0.00 | 35 | 1017.0 |
| 20260904111802 | 86 | 240 | 10.0 | 0.0 | 0.00 | 0.00 | 0.00 | 38 | 1017.0 |
| 20260904110415 | 84 | 260 | 9.0 | 0.0 | 0.00 | 0.00 | 0.00 | 40 | 1017.0 |
| 20260904104841 | 84 | 260 | 9.0 | 0.0 | 0.00 | 0.00 | 0.00 | 40 | 1017.0 |
| 20260904103405 | 82 | 310 | 9.0 | 0.0 | 0.00 | 0.00 | 0.00 | 42 | 1017.0 |
| 20260904101811 | 82 | 310 | 9.0 | 0.0 | 0.00 | 0.00 | 0.00 | 42 | 1017.0 |
| 20260904100308 | 82 | 310 | 9.0 | 0.0 | 0.00 | 0.00 | 0.00 | 42 | 1017.0 |
| 20260904094802 | 82 | 260 | 9.0 | 0.0 | 0.00 | 0.00 | 0.00 | 45 | 1017.0 |
| 20260904093302 | 82 | 260 | 9.0 | 0.0 | 0.00 | 0.00 | 0.00 | 45 | 1017.0 |
| 20260904091802 | 79 | 260 | 7.0 | 0.0 | 0.00 | 0.00 | 0.00 | 51 | 1018.0 |
| 20260904090301 | 79 | 260 | 7.0 | 0.0 | 0.00 | 0.00 | 0.00 | 51 | 1018.0 |
| 20260904084802 | 79 | 260 | 7.0 | 0.0 | 0.00 | 0.00 | 0.00 | 54 | 1017.0 |
| 20260904083302 | 79 | 260 | 7.0 | 0.0 | 0.00 | 0.00 | 0.00 | 54 | 1017.0 |
| 20260904081804 | 77 | 260 | 8.0 | 0.0 | 0.00 | 0.00 | 0.00 | 57 | 1018.0 |
| 20260904080303 | 77 | 260 | 8.0 | 0.0 | 0.00 | 0.00 | 0.00 | 57 | 1018.0 |
| 20260904074915 | 75 | 260 | 9.0 | 0.0 | 0.00 | 0.00 | 0.00 | 61 | 1018.0 |
| 20260904073303 | 75 | 260 | 9.0 | 0.0 | 0.00 | 0.00 | 0.00 | 61 | 1018.0 |
| 20260904071801 | 72 | 270 | 10.0 | 0.0 | 0.00 | 0.00 | 0.00 | 69 | 1017.0 |
| 20260904070303 | 72 | 270 | 10.0 | 0.0 | 0.00 | 0.00 | 0.00 | 69 | 1017.0 |
| 20260904064802 | 72 | 260 | 7.0 | 0.0 | 0.00 | 0.00 | 0.00 | 69 | 1017.0 |
| 20260904063302 | 72 | 260 | 7.0 | 0.0 | 0.00 | 0.00 | 0.00 | 69 | 1017.0 |
| 20260904061802 | 64 | 260 | 6.0 | 0.0 | 0.00 | 0.00 | 0.00 | 94 | 1017.0 |
| 20260904060302 | 64 | 260 | 6.0 | 0.0 | 0.00 | 0.00 | 0.00 | 94 | 1017.0 |
| 20260904054802 | 64 | 290 | 6.0 | 0.0 | 0.00 | 0.00 | 0.00 | 94 | 1017.0 |
| 20260904053303 | 64 | 290 | 6.0 | 0.0 | 0.00 | 0.00 | 0.00 | 94 | 1017.0 |
| 20260904051802 | 64 | 260 | 6.0 | 0.0 | 0.00 | 0.00 | 0.00 | 88 | 1017.0 |
| 20260904050302 | 64 | 260 | 6.0 | 0.0 | 0.00 | 0.00 | 0.00 | 88 | 1017.0 |
| 20260904044802 | 63 | 260 | 6.0 | 0.0 | 0.00 | 0.00 | 0.00 | 94 | 1017.0 |
| 20260904043302 | 63 | 260 | 6.0 | 0.0 | 0.00 | 0.00 | 0.00 | 94 | 1017.0 |
| 20260904041802 | 63 | 270 | 5.0 | 0.0 | 0.00 | 0.00 | 0.00 | 94 | 1017.0 |
| 20260904040302 | 63 | 270 | 5.0 | 0.0 | 0.00 | 0.00 | 0.00 | 94 | 1017.0 |
| 20260904034802 | 63 | 270 | 5.0 | 0.0 | 0.00 | 0.00 | 0.00 | 94 | 1017.0 |
| 20260904033302 | 63 | 270 | 5.0 | 0.0 | 0.00 | 0.00 | 0.00 | 94 | 1017.0 |
| 20260904031803 | 63 | 290 | 5.0 | 0.0 | 0.00 | 0.00 | 0.00 | 94 | 1017.0 |
| 20260904030302 | 63 | 290 | 5.0 | 0.0 | 0.00 | 0.00 | 0.00 | 94 | 1017.0 |
| 20260904024803 | 63 | 280 | 5.0 | 0.0 | 0.00 | 0.00 | 0.00 | 94 | 1016.0 |
| 20260904023303 | 63 | 280 | 5.0 | 0.0 | 0.00 | 0.00 | 0.00 | 94 | 1016.0 |
| 20260904021802 | 64 | 290 | 6.0 | 0.0 | 0.00 | 0.00 | 0.00 | 88 | 1016.0 |
| 20260904020302 | 64 | 290 | 6.0 | 0.0 | 0.00 | 0.00 | 0.00 | 88 | 1016.0 |
| 20260904014836 | 63 | 2.0 | 0.0 | 0.00 | 0.00 | 0.00 | 94 | 1016.0 | |
| 20260904013302 | 63 | 2.0 | 0.0 | 0.00 | 0.00 | 0.00 | 94 | 1016.0 | |
| 20260904011802 | 63 | 10 | 3.0 | 0.0 | 0.00 | 0.00 | 0.00 | 94 | 1016.0 |
| 20260904010302 | 63 | 10 | 3.0 | 0.0 | 0.00 | 0.00 | 0.00 | 94 | 1016.0 |
| 20260904004803 | 64 | 120 | 5.0 | 0.0 | 0.00 | 0.00 | 0.00 | 94 | 1016.0 |
| 20260904003303 | 64 | 120 | 5.0 | 0.0 | 0.00 | 0.00 | 0.00 | 94 | 1016.0 |
| 20260904001802 | 64 | 120 | 5.0 | 0.0 | 0.00 | 0.00 | 0.00 | 100 | 1016.0 |
| 20260904000303 | 64 | 120 | 5.0 | 0.0 | 0.00 | 0.00 | 0.00 | 100 | 1016.0 |
| 20260903234802 | 66 | 1.0 | 0.0 | 0.00 | 0.00 | 0.00 | 94 | 1017.0 | |
| 20260903233302 | 66 | 1.0 | 0.0 | 0.00 | 0.00 | 0.00 | 94 | 1017.0 | |
| 20260903231827 | 64 | 240 | 7.0 | 0.0 | 0.00 | 0.00 | 0.00 | 100 | 1017.0 |
| 20260903230303 | 64 | 240 | 7.0 | 0.0 | 0.00 | 0.00 | 0.00 | 100 | 1017.0 |
| 20260903223302 | 70 | 310 | 8.0 | 0.0 | 0.00 | 0.00 | 0.00 | 69 | 1017.0 |
| 20260903221802 | 72 | 40 | 7.0 | 0.0 | 0.00 | 0.00 | 0.00 | 61 | 1017.0 |
| 20260903220302 | 72 | 40 | 7.0 | 0.0 | 0.00 | 0.00 | 0.00 | 61 | 1017.0 |
| 20260903214802 | 72 | 360 | 10.0 | 0.0 | 0.00 | 0.00 | 0.00 | 61 | 1016.0 |
| 20260903213311 | 72 | 360 | 10.0 | 0.0 | 0.00 | 0.00 | 0.00 | 61 | 1016.0 |
| 20260903211806 | 73 | 360 | 10.0 | 0.0 | 0.00 | 0.00 | 0.00 | 57 | 1017.0 |
| 20260903210303 | 73 | 360 | 10.0 | 0.0 | 0.00 | 0.00 | 0.00 | 57 | 1017.0 |
| 20260903204911 | 72 | 360 | 6.0 | 0.0 | 0.00 | 0.00 | 0.00 | 61 | 1016.0 |
| 20260903203302 | 72 | 360 | 6.0 | 0.0 | 0.00 | 0.00 | 0.00 | 61 | 1016.0 |
| 20260903201802 | 72 | 10 | 5.0 | 0.0 | 0.00 | 0.00 | 0.00 | 61 | 1016.0 |
| 20260903200302 | 72 | 10 | 5.0 | 0.0 | 0.00 | 0.00 | 0.00 | 61 | 1016.0 |
| 20260903194803 | 72 | 2.0 | 0.0 | 0.00 | 0.00 | 0.00 | 61 | 1016.0 | |
| 20260903193303 | 72 | 2.0 | 0.0 | 0.00 | 0.00 | 0.00 | 61 | 1016.0 | |
| 20260903191802 | 72 | 0 | 0.0 | 0.0 | 0.00 | 0.00 | 0.00 | 57 | 1016.0 |